星链-3686 (STARLINK-3686 )

导读 | 星芒AI

STARLINK-3686 是 SpaceX Starlink 项目中的一颗低轨通信卫星,旨在为全球用户提供高速互联网服务。该卫星属于 Starlink 群体部署计划的一部分,通常由猎鹰9号火箭发射入轨。它运行在约 550 公里的高度,配备先进通信设备,支持宽带数据传输。Starlink 项目致力于改善偏远地区的网络接入,同时推动全球互联网覆盖的普及。

基本信息
目录编号:
52279
目录名称:
STARLINK-3686
国际标识:
2022-041U
轨道中心:
EARTH
卫星名称:
星链-3686
卫星全名:
星链-3686 (STARLINK-3686 )
卫星状态:
已陨落 最后检测时间 2024-03-30
发射日期:
2022-04-21 UTC
国别 :
美国 (US)
星等 :
--
轨道信息
数据来源 国际轨道数据
星历时间: 2024-03-31T08:25:54+0800
轨道信息已过期588天
半长轴: 6522.281km
偏心率: 0.0019698
轨道倾角: 53.200°
近地点辐角 316.006°
升交点赤经 328.693°
平近点角 80.245°
近地点: 131.298km
远地点: 156.994km
周期: 87.369分钟
每日圈数: 16.481758
详细信息
固有亮度:
5
最大亮度:
2.5
卫星平台:
Starlink v1.5
覆盖范围:
全球
运营商:
太空探索技术公司
运营商所在国:
美国
制造商(研发单位):
太空探索技术公司
制造商所在国:
美国
使用方式:
暂无
卫星简介
星链(Starlink)计划是由太空探索技术公司(SpaceX)提出的一个巨型低轨卫星互联网星座项目,计划在2019年至2024年间在太空搭建由约1.2万颗卫星组成的“星链”网络,其中1584颗将部署在地球上空550千米处的近地轨道,并从2020年开始工作。该卫星已陨落。